Tracking 29932 objects as of 3-Dec-2024
HD Live streaming from Space Station
objects crossing your sky now

STARLINK-30567

Track STARLINK-30567 now!
10-day predictions
STARLINK-30567 is classified as:


NORAD ID: 58067
Int'l Code: 2023-158S
Perigee: 565.5 km
Apogee: 566.9 km
Inclination: 43.0 °
Period: 95.8 minutes
Semi major axis: 6937 km
RCS: Unknown
Launch date: October 13, 2023
Source: United States (US)
Launch site: AIR FORCE EASTERN TEST RANGE (AFETR)
Your satellite tracking list
Your tracking list is empty




NASA's NSSDC Master Catalog

Two Line Element Set (TLE):
1 58067U 23158S   24338.17934126  .00000573  00000-0  57468-4 0  9997
2 58067  43.0030  18.4255 0000997 256.4502 103.6229 15.02530960 64107
Source of the keplerian elements: AFSPC